Погода в Горки

Погода в Горки : погода сейчас, прогноз погоды и архив. Всё, что Вы хотите узнать о погоде в Горки!

Хотите узнать прогноз погоды в Горки? Тогда Вам сюда: Погода в Горки

Поиск расширенной информации на нашем сайте:

Другие новости

Новости СМИ2

Главная страница сайта

Новости сайта

03.07.2017

Напоминаем, что на нашем специализированном сайте Метеоцентр.Азия вы можете получить высокодетализированные автоматические прогнозы погоды по пунктам России, СНГ и мира в авиационном формате (включающие направление и скорость ветра, видимость, явления погоды, количество и форму облачности, нижнюю и верхнюю границу облачности).


Погода в Горки - сегодня

Время (UTC), дата Ветер
(°,м/с) 
Видим.   Явления Облачность Т
(°С)
Тd
(°С)
f(%) Тe
(°С)
Pmin
(гПа)
dP
(гПа)
Po
(мм)
O2
(г/м3)
Тmin Tmax R s Состояние
почвы
15 12.07.18 050 (СВ) 19000 м    8/5 600 м верхняя 
[Sc|Ci fib]
+25.9 +17 58 +39  1012.9  -1  743  270           
18 12.07.18 350 (С) 16000 м    6/6 600 м 
[Sc]
+21.2 +18.3 84 +36  1013.4  743  273    +26.3       
21 12.07.18 350 (С) 12000 м    3/0 средняя 
[Ac trans]
+17.3 +16 92 +30  1013.7  743  278           
00 13.07.18 050 (СВ) 12000 м    8/0 верхняя 
[Ci fib]
+17.3 +16.4 94 +30  1013  -0.7  742  278           
06 13.07.18 050 (СВ) 17000 м    6/0 средняя, верхняя 
[Ac trans|Ci fib]
+21.5 +18.2 81 +37  1011.3  -0.7  741  273  +16.3         
09 13.07.18 060 (СВ) 16000 м    8/6 300 м кучево-дожд., верхняя 
[Cb cap|Ci sp]
+24.1 +17.9 68 +39  1010.1  -0.9  740  270           
15 13.07.18 030 (СВ) 20000 м    8/4 300 м кучево-дожд., средняя 
[Cb cap|Ac und]
+21.9 +17.9 78 +36  1009.1  -1.3  740  272         
18 13.07.18 070 (В) 15000 м    6/3 600 м верхняя 
[Sc|Ci sp]
+20.4 +17.9 86 +35  1008.4  -0.8  739  273    +24.4     
21 13.07.18 090 (В) 14000 м    10/6 600 м средняя 
[Sc|Ac As]
+18 +17 94 +32  1008.7  739  276           
00 14.07.18 110 (В) 12000 м    8/3 600 м средняя 
[Sc|Ac und]
+15.8 +15.3 97 +27  1008.7  -0.2  739  278           
03 14.07.18 220 (ЮЗ) 0200 м  туман  10/10 210 м 
[St]
+15.6 +15.6 100 +26  1008.6  -0.1  739  278           
06 14.07.18 230 (ЮЗ) 5000 м  в посл. час туман  10/10 120 м 
[Frnb]
+16.4 +16.3 99 +29  1008.1  -0.4  738  277  +14.8         
12 14.07.18 220 (ЮЗ) 20000 м  {ливн. осадки}  8/4 600 м средняя 
[Sc|Ac und]
+22.7 +16.7 69 +35  1006.8  -1.1  738  271      0.2     
18 14.07.18 030 (СВ) 15000 м    6/3 600 м средняя 
[Sc|Ac trans]
+18.9 +17.4 91 +34  1006.7  -0.2  738  274    +23  0.2     
21 14.07.18 020 (С) 12000 м    4/0 средняя 
[Ac trans]
+16.8 +16.3 97 +29  1007.9  0.9  738  277           
00 15.07.18 350 (С) 0400 м  туман  3/0 средняя 
[Ac trans]
+15.2 +15.2 100 +24  1007.5  -0.5  738  278           
03 15.07.18 340 (С) 13000 м  {туман}  4/0 средняя 
[Ac trans]
+14.6 +14.3 98 +23  1007.6  0.1  738  279           
06 15.07.18 090 (В) 20000 м  {туман}  6/6 600 м 
[Sc]
+18.8 +16.3 85 +31  1007.5  0.2  738  275  +14         
09 15.07.18 350 (С) 20000 м    8/8 870 м 
[Sc]
+22.6 +17.5 73 +36  1007.5  0.4  738  271           
12 15.07.18 030 (СВ) 19000 м  гроза без осадков  10/8 400 м кучево-дожд., средняя 
[Cb cap|Ac As]
+23.2 +17.8 72 +38  1007  -0.5  738  270           
18 15.07.18 030 (СВ) 20000 м  {гроза, ливн. осадки}  10/8 1350 м средняя 
[Sc|Ac As]
+19.2 +16.8 86 +32  1008.6  1.3  739  274    +25.2  0.3     
00 16.07.18 340 (С) 11000 м  в посл. час ливневой дождь  10/10 420 м кучево-дожд. 
[Cb cap]
+17.1 +16.6 97 +30  1008.6  -0.3  739  276         
03 16.07.18 350 (С) 14000 м  в посл. час ливневой дождь  10/8 960 м средняя 
[Sc|Ac As]
+17.5 +16.8 96 +30  1008.6  739  276         
06 16.07.18 360 (С) 13000 м  {ливн. осадки}  9/3 600 м средняя, верхняя 
[Sc|Ac und|Ci sp]
+19.9 +17.8 88 +35  1008  -0.4  739  273  +17       
12 16.07.18 320 (СЗ) 5-10  9000 м  гроза, ливневой дождь  10/8 420 м кучево-дожд., верхняя 
[Cb cap|Ci sp]
+23.6 +20.2 81 +43  1005  -2.2  737  268           
Время (UTC), дата Ветер
(°,м/с) 
Видим.   Явления Облачность Т
(°С)
Тd
(°С)
f(%) Тe
(°С)
Pmin
(гПа)
dP
(гПа)
Po
(мм)
O2
(г/м3)
Тmin Tmax R s Состояние
почвы

Для получения пояснительной информации подведите курсор к названию столбца.

ПОГОДА в Горки - архив

Всё, что Вы хотите узнать о погоде в Горки - удобно и подробно!

Выберите нужную дату (начиная с 1 января 2015* года) и нажмите кнопку "Найти".
Будут отображены архивные сводки погоды по пункту Горки, начиная с указанной даты.


Отображать данные в формате CSV (для использования в таблицах Excel)


Внимание! Наш архив погоды предназначен исключительно для личного некоммерческого использования в познавательных целях. Если Вам необходимы официальные справки о состоянии погоды (для производственных, юридических, коммерческих и т.п. целей), обращайтесь в органы Росгидромета.

*Примечание: данная дата относится к архиву по метеостанциям СССР (Россия, СНГ, Балтия).
Архив по метеостанциям Зарубежной Европы и Азии (кроме Китая) хранится 10 дней, по другим регионам земного шара (Китай, Африка, Америка, Австралия, Океания) - 1 день.

Горки - район местоположения метеостанции


Название, широта, долгота, высота метеостанции:
Горки 54.3°ш. 30.9°д. 205 м над ур. моря [Беларусь]

Дополнительная информация

В oтличие oт бoльшинства пoгoдных сайтoв мы публикуем пoдрoбную метеoинфoрмацию в детальнoм прoфессиoнальнoм фoрмате.

Характеристики температуры и влажнoсти вoздуха измеряются на высoте 2 м в тени вдали oт зданий и деревьев.
Скoрoсть ветра измеряется на высoте 10 м (на урoвне рoста челoвека скoрoсть ветра ниже в 1.5-2 раза). Если метеoстанция нахoдится в гoрoде или в лесу, тo скoрoсть ветра занижена на 2-4 м/с пo сравнению с oткрытым местoм. Скoрoсть ветра над акватoриями крупных рек и oзёр, а также на вершинах хoлмoв на 2-5 м/с выше, чем в oбычных услoвиях.
Атмoсфернoе давление в разных тoчках местнoсти мoжет значительнo oтличаться oт давления на метеoстанции, в зависимoсти oт услoвий рельефа (при пoдъёме на 10 м давление пoнижается примернo на 1 мм рт.ст.).